Probability
0 0 0 0 0 0 0 0 0 0 0 0 0 0 0 0 0 0 0 0 0 1 3 4 2 1 0 0 0 0 0 0 0 0 0 0 0 0 0 0 0 0 0
0 0 0 0 0 0 0 0 0 0 0 0 0 0 0 0 0 0 0 0 0 0 1 1 1 0 0 0 0 0 0 0 0 0 0 0 0 0 0 0 0 0 0
0 0 0 0 0 0 0 0 0 0 0 0 0 0 0 0 0 0 0 0 0 0 0 0 0 0 0 0 0 0 0 0 0 0 0 0 0 0 0 0 0 0 0
0 0 0 0 0 0 0 0 0 0 0 0 0 0 0 0 0 0 0 0 0 0 0 0 0 0 0 0 0 0 0 0 0 0 0 0 0 0 0 0 0 0 0
0 0 0 0 0 0 0 0 0 0 0 0 0 0 0 0 0 0 0 0 0 0 0 0 0 0 0 0 0 0 0 0 0 0 0 0 0 0 0 0 0 0 0
0 0 0 0 0 0 0 0 0 0 0 0 0 0 0 0 0 0 0 0 0 0 0 0 0 0 0 0 0 0 0 0 0 0 0 0 0 0 0 0 0 0 0
0 0 0 0 0 0 0 0 0 0 0 0 0 0 0 0 0 0 0 0 0 0 0 0 0 0 0 0 0 0 0 0 0 0 0 0 0 0 0 0 0 0 0
0 0 0 0 0 0 0 0 0 0 0 0 0 0 0 0 0 0 0 0 0 0 0 0 0 0 0 0 0 0 0 0 0 0 0 0 0 0 0 0 0 0 0
0 0 0 0 0 0 0 0 0 0 0 0 0 0 0 0 0 0 0 0 0 0 0 0 0 0 0 0 0 0 0 0 0 0 0 0 0 0 0 0 0 0 0
0 0 0 0 0 0 0 0 0 0 0 0 0 0 0 0 0 0 0 0 0 0 0 0 0 0 0 0 0 0 0 0 0 0 0 0 0 0 0 0 0 0 0
0 0 0 0 0 0 0 0 0 0 0 0 0 0 0 0 0 0 0 0 0 0 0 0 0 0 0 0 0 0 0 0 0 0 0 0 0 0 0 0 0 0 0
0 0 0 0 0 0 0 0 0 0 0 0 0 0 0 0 0 0 0 0 0 0 0 0 0 0 0 0 0 0 0 0 0 0 0 0 0 0 0 0 0 0 0
0 0 0 0 0 0 0 0 0 0 0 0 0 0 0 0 0 0 0 0 0 0 0 0 0 0 0 0 0 0 0 0 0 0 0 0 0 0 0 0 0 0 0
0 0 0 0 0 0 0 0 0 0 0 0 0 0 0 0 0 0 0 0 0 0 0 0 0 0 0 0 0 0 0 0 0 0 0 0 0 0 0 0 0 0 0
0 0 0 0 0 0 0 0 0 0 0 0 0 0 0 0 0 0 0 0 0 0 0 0 0 0 0 0 0 0 0 0 0 0 0 0 0 0 0 0 0 0 0
0 0 0 0 0 0 0 0 0 0 0 0 0 0 0 0 0 0 0 0 0 0 0 0 0 0 0 0 0 0 0 0 0 0 0 0 0 0 0 0 0 0 0
0 0 0 0 0 0 0 0 0 0 0 0 0 0 0 0 0 0 0 0 0 0 0 0 0 0 0 0 0 0 0 0 0 0 0 0 0 0 0 0 0 0 0
0 0 0 0 0 0 0 0 0 0 0 0 0 0 0 0 0 0 0 0 0 0 0 0 0 0 0 0 0 0 0 0 0 0 0 0 0 0 0 0 0 0 0
0 0 0 0 0 0 0 0 0 0 0 0 0 0 0 0 0 0 0 0 0 0 0 0 0 0 0 0 0 0 0 0 0 0 0 0 0 0 0 0 0 0 0
0 0 0 0 0 0 0 0 0 0 0 0 0 0 0 0 0 0 0 0 0 0 0 0 0 0 0 0 0 0 0 0 0 0 0 0 0 0 0 0 0 0 0
0 0 0 0 0 0 0 0 0 0 0 0 0 0 0 0 0 0 0 0 0 0 0 0 0 0 0 0 0 0 0 0 0 0 0 0 0 0 0 0 0 0 0
0 0 0 0 0 0 0 0 0 0 0 0 0 0 0 0 0 0 0 0 0 0 0 0 0 0 0 0 0 0 0 0 0 0 0 0 0 0 0 0 0 0 0
0 0 0 0 0 0 0 0 0 0 0 0 0 0 0 0 0 0 0 0 0 0 0 0 0 0 0 0 0 0 0 0 0 0 0 0 0 0 0 0 0 0 0
0 0 0 0 0 0 0 0 0 0 0 0 0 0 0 0 0 0 0 0 0 0 0 0 0 0 0 0 0 0 0 0 0 0 0 0 0 0 0 0 0 0 0
0 0 0 0 0 0 0 0 0 0 0 0 0 0 0 0 0 0 0 0 0 0 0 0 0 0 0 0 0 0 0 0 0 0 0 0 0 0 0 0 0 0 0
0 0 0 0 0 0 0 0 0 0 0 0 0 0 0 0 0 0 0 0 0 0 0 0 0 0 0 0 0 0 0 0 0 0 0 0 0 0 0 0 0 0 0
Wind_Speed
4 4 3 2 2 2 2 2 2 3 2 2 2 2 3 3 4 4 6 6 6 6 4 4 4 4 3 4 5 4 4 4 4 3 2 2 2 2 1 2 2 3 3
6 5 4 3 3 2 1 1 2 2 2 2 2 2 2 2 3 3 4 6 6 6 5 4 4 4 3 4 4 4 4 3 4 3 2 2 1 0 2 2 2 3 3
7 6 5 4 3 2 2 1 1 1 2 2 1 1 1 1 2 4 4 5 6 6 6 5 4 4 4 3 4 4 4 3 3 3 2 2 2 3 2 3 3 3 3
7 6 6 5 4 3 2 1 1 1 1 1 1 2 2 2 3 3 3 4 5 5 5 5 5 4 4 4 4 3 3 4 4 3 2 3 3 3 3 3 3 4 5
7 7 6 5 4 3 2 2 1 0 1 1 1 1 2 2 2 3 4 4 4 4 5 5 5 4 4 4 4 4 4 4 4 4 4 4 4 5 5 5 5 5 4
7 6 6 5 4 3 2 2 1 1 0 1 1 1 2 2 3 4 4 4 3 4 5 5 5 5 4 5 5 5 5 5 5 5 4 5 4 4 5 6 6 6 6
6 6 6 6 5 4 3 2 2 1 1 1 1 2 2 3 3 4 4 4 4 4 5 5 5 5 5 5 5 5 5 6 6 6 5 5 5 6 6 6 6 8 7
5 6 6 5 5 4 4 3 3 2 2 2 2 2 3 3 3 4 4 4 4 4 6 6 6 6 6 6 5 5 5 6 6 7 7 6 6 6 6 6 6 7 7
5 5 5 5 4 4 3 3 3 2 2 2 3 3 3 3 4 4 4 4 4 5 6 6 6 7 7 6 6 5 6 6 7 7 8 7 6 6 6 6 6 7 8
4 5 5 4 3 3 3 3 3 3 3 3 3 3 4 4 4 4 5 5 6 6 7 7 7 7 7 7 6 6 6 7 7 7 8 8 6 6 6 7 7 7 9
5 5 4 4 3 3 3 3 2 3 3 3 3 4 4 4 5 5 5 6 6 6 7 7 7 7 7 8 7 7 7 8 8 8 9 9 9 7 7 7 7 8 8
4 4 4 4 3 3 3 3 3 3 3 3 4 4 4 5 5 6 6 6 7 7 7 7 7 7 7 8 8 8 8 8 9 10 10 10 8 9 8 8 9 8 9
3 3 4 3 3 3 3 3 3 3 3 3 4 5 5 5 6 6 6 7 7 7 7 8 8 8 8 8 8 8 8 9 10 10 10 10 10 10 8 9 9 8 8
3 3 3 3 3 3 3 3 3 3 3 4 5 5 5 6 6 6 7 7 7 8 8 8 8 9 9 9 9 9 9 9 10 10 10 10 10 11 10 9 10 9 9
3 3 4 3 3 3 3 3 3 3 4 4 5 5 6 6 6 7 7 7 7 8 8 8 9 9 8 8 9 9 9 10 11 10 10 10 11 13 12 10 9 9 9
3 3 3 3 3 3 3 3 3 4 4 5 5 5 6 6 7 7 7 8 8 8 8 9 9 9 8 11 14 12 10 10 11 11 11 11 12 13 16 17 16 15 12
2 3 3 3 3 3 3 3 3 4 4 5 5 6 6 7 7 7 7 8 8 8 9 9 9 10 10 13 15 15 11 11 10 11 11 9 9 12 11 13 15 16 17
2 2 2 2 2 2 3 3 3 4 5 5 6 6 6 7 7 7 8 8 8 8 8 9 10 10 10 13 15 15 12 11 11 11 11 11 11 10 11 11 12 12 13
2 2 1 2 2 2 2 3 3 4 5 6 6 6 7 7 8 8 8 8 8 8 8 9 9 10 11 13 14 14 9 9 11 11 11 11 11 13 15 12 12 12 11
1 1 1 1 2 2 2 3 4 4 5 6 7 7 7 8 8 8 8 8 8 8 9 9 9 10 10 12 14 14 8 9 9 9 10 12 13 14 14 11 11 12 11
1 1 1 1 2 2 2 3 4 5 6 7 7 7 7 8 8 8 8 8 8 8 8 9 9 9 10 11 13 13 8 8 8 8 8 8 13 15 15 14 11 12 12
1 1 1 2 3 3 3 4 5 6 6 7 7 8 8 7 7 8 8 7 8 8 8 8 8 7 8 9 11 13 13 12 9 9 8 9 13 15 15 12 12 15 13
2 2 2 3 3 3 3 5 6 6 6 7 7 7 8 7 7 7 7 7 6 6 6 7 7 7 6 7 12 13 14 14 10 9 12 14 14 14 11 13 14 12 8
2 2 3 3 4 4 5 5 6 6 6 7 7 7 7 7 7 6 6 6 6 6 6 7 7 7 7 7 6 7 8 10 10 8 10 12 12 10 10 10 8 7 7
2 3 3 4 5 6 6 6 6 6 6 7 7 7 6 7 6 6 6 7 7 7 8 7 7 8 8 8 12 10 8 7 8 8 6 6 6 5 5 6 5 5 5
3 3 4 5 6 6 6 6 6 6 6 6 6 6 5 6 6 6 6 8 9 12 13 13 12 10 12 14 15 15 14 13 12 8 6 6 5 5 5 6 5 5 5
Wind_Direction
182 170 166 158 146 128 114 93 69 46 33 26 17 18 17 11 13 13 12 7 8 4 4 1 1 357 357 353 348 342 343 350 341 320 318 293 270 271 286 309 308 312 319
187 179 176 171 168 159 140 100 69 46 25 9 4 360 359 358 360 359 7 5 5 1 353 356 351 350 341 343 348 348 339 343 346 329 309 304 268 136 323 304 306 311 315
198 189 188 187 182 178 171 141 76 44 23 17 20 29 8 343 351 354 355 0 359 359 355 344 342 340 336 333 338 337 335 326 327 328 311 297 299 321 274 289 303 319 320
203 196 193 194 194 186 173 165 133 59 28 21 19 10 357 349 340 335 336 346 353 354 351 344 336 333 327 326 325 321 312 303 305 299 289 287 292 277 289 273 285 303 307
202 200 197 195 193 182 176 173 162 104 22 3 359 357 353 337 329 325 331 337 344 347 346 340 333 329 322 320 319 311 301 290 290 291 287 280 270 254 257 271 281 293 290
199 199 193 187 183 177 175 178 178 201 278 310 318 317 322 322 321 324 327 328 331 333 340 332 326 321 316 311 308 303 299 286 278 280 272 269 263 267 269 270 275 279 286
197 196 191 187 185 185 186 189 199 221 251 277 288 296 299 297 301 311 315 318 320 324 328 325 319 315 310 307 302 293 292 287 277 275 271 266 263 266 269 272 277 280 284
198 198 195 190 189 190 194 197 209 227 247 266 281 288 290 290 295 301 305 308 309 312 315 313 309 307 306 300 298 288 284 284 278 275 272 267 265 264 261 264 276 278 275
199 196 193 192 193 192 197 202 213 230 245 260 272 278 283 289 293 295 297 299 300 302 304 302 301 299 300 296 294 284 281 282 279 277 274 267 265 266 263 258 256 264 272
194 191 191 191 192 192 199 207 220 238 253 261 267 276 281 286 289 291 293 297 298 299 298 300 301 299 294 292 286 285 279 276 276 277 275 267 263 263 263 258 254 257 263
198 193 190 188 189 191 198 214 225 243 255 264 271 276 281 285 285 284 288 293 294 295 295 297 297 296 295 293 283 280 283 278 276 275 273 269 266 263 260 260 256 257 259
201 194 190 189 193 200 209 224 235 245 257 265 271 277 282 282 281 284 287 290 291 291 292 290 288 287 288 288 284 279 279 280 277 274 273 270 266 263 261 258 256 257 259
195 194 195 202 207 215 224 234 245 253 261 266 270 275 278 280 282 287 291 292 291 290 289 287 286 287 287 287 285 281 280 279 279 277 273 273 267 264 263 260 258 258 260
204 207 210 215 222 233 238 243 253 260 264 267 270 273 278 282 285 288 290 289 289 289 289 287 286 286 285 285 284 281 280 280 279 276 275 274 270 267 266 263 261 261 260
218 218 222 227 232 241 248 253 260 266 267 267 270 275 282 284 285 287 288 288 287 287 288 286 286 284 283 282 286 285 282 281 280 278 275 273 272 272 267 264 263 262 260
235 236 238 241 243 244 250 259 267 272 272 271 275 282 284 284 285 288 288 287 287 287 287 285 284 283 281 286 288 289 287 284 282 281 280 277 272 270 269 266 265 264 261
245 243 248 250 255 256 258 264 274 279 277 276 280 285 287 287 289 289 287 286 287 287 286 285 283 282 284 288 289 289 288 283 280 280 279 277 275 275 271 268 267 265 264
264 265 266 273 281 282 279 281 281 279 279 280 283 287 290 290 291 289 287 288 288 286 285 285 284 284 286 289 291 292 285 280 278 278 279 278 277 273 273 269 267 264 262
272 278 286 287 291 289 286 285 286 286 285 287 291 293 292 291 291 291 291 292 290 288 287 285 285 285 288 291 293 291 286 280 280 280 279 277 276 277 277 272 267 268 266
331 317 323 319 305 304 295 287 292 294 293 296 297 296 293 290 290 290 292 293 291 288 289 287 286 285 288 291 292 292 284 282 283 282 279 274 274 278 277 274 270 268 269
9 358 344 326 317 316 304 293 298 299 301 301 298 295 292 290 288 289 289 290 290 289 287 286 286 285 287 289 290 291 286 285 285 284 282 278 278 279 281 280 275 274 278
359 350 337 326 326 320 305 299 301 306 308 304 299 297 295 292 289 289 290 289 289 289 288 288 289 288 290 290 289 291 290 291 285 284 285 285 284 284 284 282 278 282 282
335 334 323 319 323 320 308 300 304 310 307 303 300 299 298 294 291 290 290 290 287 287 289 289 289 292 294 295 293 292 292 291 288 284 288 292 294 290 283 279 282 282 274
323 325 317 313 315 319 311 300 304 307 303 300 300 299 297 297 296 292 288 288 289 288 289 291 293 294 294 294 296 290 289 290 288 288 290 291 290 287 287 287 281 273 272
317 312 306 305 308 311 308 308 308 306 300 298 297 298 296 297 296 291 288 289 283 286 291 292 293 295 295 300 305 305 300 297 295 299 293 292 290 286 284 283 283 282 283
311 310 308 305 306 308 307 309 309 303 298 297 299 298 298 297 295 295 295 290 289 295 296 296 298 296 298 304 305 306 306 307 309 303 291 290 291 290 290 292 291 288 286